[[{"header":{"parameterUnit":"m.s-1","parameterCategory":1,"la1":30.2991,"la2":30.254,"lo1":-89.0895,"lo2":-89.0444,"dy":0.0017,"dx":0.0017,"nx":28,"ny":28,"refTime":"2024-07-13T09:00:00:Z","depth":0,"parameterNumber":2,"parameterNumberName":"U-component_of_WINDS"},"data":[0,0,0,0,0,0,0,0,0,0,0,0,0,0,0,0,0,0,0,0,0,0,0,0,0,0,0,0,0,0,0,0,0,0,0,0,0,0,0,0,0,0,0,0,0,0,0,0,0,0,0,0,0,0,0,0,0,0,1.7474,1.7475,0,1.7613,1.7615,1.7617,1.7594,1.7592,1.759,1.7587,1.7737,1.7743,1.7749,0,0,0,0,0,0,0,0,0,0,0,0,0,1.7192,1.7197,1.7474,1.7476,1.7477,1.7613,1.7615,1.7617,1.7595,1.7592,1.7589,1.7586,1.7735,1.7742,1.7749,0,0,0,0,0,0,0,0,0,0,0,0,0,1.7321,1.7199,1.7473,1.7482,1.7485,1.7613,1.7615,1.7618,1.7595,1.7592,1.7588,1.7585,1.7732,1.7741,1.775,1.7881,0,0,1.7779,1.7783,0,0,0,0,0,0,0,0,1.7314,1.7332,1.7479,1.7482,1.7485,1.7583,1.7571,1.7706,1.7596,1.7554,1.7587,1.7583,1.7689,1.7701,1.7736,1.7888,1.7894,1.778,1.7785,1.7789,1.7792,0,0,0,0,0,0,0,1.7305,1.7326,1.7529,1.7482,1.7485,1.7481,1.7495,1.7596,1.764,1.7557,1.7556,1.7572,1.769,1.7727,1.7739,1.7896,1.778,1.7788,1.7794,1.7797,1.816,1.8164,0,0,0,0,0,0,1.7293,1.7318,1.7525,1.7533,1.7388,1.7489,1.7505,1.7555,1.7639,1.7648,1.7575,1.7571,1.7713,1.7728,1.7744,1.7901,1.7789,1.7798,1.7804,1.8156,1.8161,1.8166,0,0,0,0,0,0,1.7287,1.7312,1.7519,1.7426,1.7452,1.7497,1.7554,1.756,1.7597,1.7652,1.7661,1.7605,1.771,1.7731,1.7846,1.7906,1.7802,1.7811,1.8152,1.8158,1.8163,1.8217,0,0,0,0,0,0,1.7279,1.731,1.7359,1.7427,1.7457,1.7618,1.7558,1.7565,1.7612,1.7608,1.7682,1.7692,1.7709,1.7832,1.7855,1.7917,1.7818,1.8146,1.8154,1.8161,1.821,1.8224,1.8236,0,0,0,0,0,1.7269,1.737,1.7361,1.7386,1.7519,1.7621,1.7638,1.7655,1.7617,1.7668,1.7703,1.7689,1.7895,1.7844,1.787,1.7936,1.8143,1.8152,1.8161,1.8205,1.8222,1.8236,0,0,0,0,0,0,1.7311,1.7379,1.737,1.7496,1.7553,1.7617,1.7681,1.7673,1.7743,1.7736,1.7755,1.7772,1.7889,1.7924,1.7865,1.8065,1.8014,1.8029,1.8038,1.8055,1.8068,1.8058,1.7826,0,0,0,0,0,1.7334,1.741,1.7466,1.7572,1.76,1.7636,1.7681,1.7688,1.7749,1.7773,1.7817,1.7877,1.7956,1.8007,1.8083,1.8215,1.8231,1.8272,1.8285,1.8296,1.8309,1.838,1.8399,1.8195,1.8195,1.8195,0,0,1.7385,1.7431,1.7479,1.7582,1.7626,1.7705,1.7657,1.7743,1.7802,1.7787,1.7897,1.7931,1.8,1.8124,1.8181,1.8157,1.8368,1.8307,1.8315,1.8323,1.8392,1.8411,1.8428,1.8202,1.82,1.82,0,0,1.7517,1.756,1.7652,1.7696,1.7763,1.7785,1.7807,1.7873,1.7894,1.8004,1.7994,1.8065,1.82,1.8249,1.8291,1.8438,1.8428,1.8462,1.8531,1.8601,1.8617,1.8631,1.8683,1.8702,1.8475,1.8475,1.8475,0,1.7572,1.7689,1.7701,1.7787,1.7833,1.7819,1.7913,1.7956,1.8046,1.8078,1.8049,1.8216,1.8261,1.8396,1.8431,1.8466,1.8492,1.8455,1.8613,1.8627,1.8641,1.8691,1.8711,1.8479,1.8478,1.8478,1.8477,0,1.7753,1.7834,1.79,1.7983,1.8036,1.8126,1.8152,1.8205,1.8206,1.8232,1.8344,1.8397,1.8483,1.8515,1.8519,1.865,1.8632,1.8608,1.8557,1.8664,1.8711,1.8731,1.8484,1.8482,1.8481,1.848,0,0,1.7918,1.8004,1.8028,1.8065,1.8136,1.82,1.8288,1.8369,1.8413,1.8475,1.855,1.8662,1.8639,1.8688,1.8697,1.8758,1.887,1.8726,1.8728,1.8751,1.9016,1.9035,1.9057,1.8862,1.8866,1.8869,1.9011,0,1.8057,1.8212,1.8223,1.8364,1.8438,1.8425,1.8503,1.8555,1.8581,1.8649,1.8678,1.8757,1.8721,1.875,1.8809,1.8843,1.8923,1.8833,1.8934,1.8938,1.8918,1.9081,1.9102,1.9233,1.9029,1.9032,1.9035,0,1.8241,1.8304,1.845,1.8509,1.8541,1.861,1.8683,1.8748,1.8808,1.8822,1.8874,1.8874,1.8966,1.891,1.9037,1.8975,1.9017,1.904,1.9045,1.9056,1.8993,1.9098,1.9275,1.9295,1.9064,1.9062,1.906,0,1.8346,1.8468,1.8571,1.8603,1.8674,1.8723,1.8755,1.881,1.8857,1.8922,1.8952,1.9028,1.907,1.9128,1.9149,1.9106,1.9275,1.9221,1.9291,1.929,1.9328,1.9326,1.9516,1.9354,1.9354,1.9353,1.9353,0,1.8501,1.8591,1.8619,1.8683,1.8784,1.8796,1.8896,1.8926,1.8974,1.9044,1.9038,1.9104,1.9126,1.9196,1.9213,1.9315,1.9335,1.9349,1.9353,1.9351,1.9349,1.9379,1.9371,1.9358,1.9357,1.9356,1.9355,0,1.8637,1.866,1.8771,1.8827,1.8844,1.8915,1.8964,1.9026,1.9049,1.9137,1.9159,1.9196,1.9277,1.9303,1.9402,1.9413,1.9533,1.9528,1.9513,1.9513,1.9581,1.9575,1.9798,1.9828,1.9646,1.9647,1.9649,0,1.8735,1.8804,1.8866,1.8911,1.8944,1.9017,1.9064,1.9078,1.9127,1.9198,1.9251,1.9331,1.9396,1.9527,1.9564,1.964,1.9637,1.971,1.9649,1.9644,1.9639,1.9635,1.9642,1.9722,1.9724,1.9726,1.9727,0,1.8906,1.8913,1.8979,1.9049,1.9104,1.916,1.9215,1.9252,1.9275,1.933,1.9412,1.9462,1.9561,1.9641,1.9717,1.9752,1.9744,1.9745,1.9766,1.9765,1.9752,1.976,1.9545,1.9741,1.974,1.9739,1.9738,1.9737,1.9027,1.9086,1.9138,1.9212,1.9253,1.9304,1.9364,1.9392,1.946,1.954,1.9545,1.9634,1.969,1.979,1.9828,1.9899,1.9878,1.9907,1.9915,1.9922,1.9927,1.974,1.9913,1.9912,1.9912,1.9912,1.9912,0,1.9197,1.9229,1.9296,1.9371,1.9429,1.9412,1.9471,1.9521,1.9598,1.965,1.9712,1.9806,1.9882,1.9923,2.0,2.0048,2.0046,2.0068,2.0065,2.0073,1.9942,1.9917,2.0068,2.0068,2.0068,2.0068,2.0068,2.0068,1.9293,1.9392,1.9405,1.9525,1.9557,1.9641,1.9676,1.9722,1.9763,1.9867,1.9929,1.9954,2.0002,2.0081,2.015,2.0161,2.0189,2.0213,2.0222,2.0098,2.0083,2.0067,2.0044,2.0219,2.022,2.0347,2.0348,2.0349]},{"header":{"parameterUnit":"m.s-1","parameterCategory":1,"la1":30.2991,"la2":30.254,"lo1":-89.0895,"lo2":-89.0444,"dy":0.0017,"dx":0.0017,"nx":28,"ny":28,"refTime":"2024-07-13T09:00:00:Z","depth":0,"parameterNumber":3,"parameterNumberName":"V-component_of_WINDS"},"data":[0,0,0,0,0,0,0,0,0,0,0,0,0,0,0,0,0,0,0,0,0,0,0,0,0,0,0,0,0,0,0,0,0,0,0,0,0,0,0,0,0,0,0,0,0,0,0,0,0,0,0,0,0,0,0,0,0,0,3.7527,3.7528,0,3.7655,3.7656,3.7658,3.7613,3.761,3.7608,3.7605,3.7729,3.7735,3.774,0,0,0,0,0,0,0,0,0,0,0,0,0,3.7235,3.7241,3.7527,3.7528,3.753,3.7655,3.7656,3.7658,3.7614,3.761,3.7607,3.7604,3.7727,3.7734,3.7741,0,0,0,0,0,0,0,0,0,0,0,0,0,3.7362,3.7243,3.7526,3.7523,3.7524,3.7654,3.7656,3.7659,3.7614,3.761,3.7606,3.7602,3.7725,3.7733,3.7742,3.7881,0,0,3.7769,3.7773,0,0,0,0,0,0,0,0,3.7355,3.7373,3.7522,3.7524,3.7525,3.7614,3.7599,3.7733,3.7616,3.758,3.7605,3.76,3.7693,3.7705,3.7738,3.7887,3.7892,3.777,3.7775,3.7779,3.7781,0,0,0,0,0,0,0,3.7346,3.7367,3.7577,3.7524,3.7526,3.7512,3.7526,3.7624,3.7658,3.7583,3.758,3.7596,3.7693,3.7729,3.774,3.7894,3.777,3.7777,3.7783,3.7786,3.8161,3.8165,0,0,0,0,0,0,3.7338,3.736,3.7573,3.7581,3.7428,3.7521,3.7536,3.7589,3.7657,3.7664,3.7599,3.7593,3.7716,3.773,3.7744,3.791,3.7779,3.7787,3.7792,3.8156,3.8162,3.8167,0,0,0,0,0,0,3.7332,3.7357,3.7568,3.747,3.7496,3.7531,3.7591,3.7594,3.763,3.767,3.7675,3.763,3.7713,3.7732,3.7847,3.7914,3.7791,3.7799,3.8151,3.8158,3.8164,3.8244,0,0,0,0,0,0,3.7324,3.7356,3.7411,3.7472,3.7501,3.7672,3.7595,3.76,3.7646,3.764,3.77,3.7706,3.7711,3.7834,3.7856,3.7924,3.7806,3.8145,3.8154,3.8162,3.8236,3.8253,3.8268,0,0,0,0,0,3.7313,3.7427,3.7414,3.744,3.7572,3.7676,3.7692,3.7698,3.7652,3.7706,3.7732,3.7704,3.7903,3.7847,3.7871,3.7942,3.8141,3.8151,3.8161,3.8229,3.825,3.8268,0,0,0,0,0,0,3.7371,3.7435,3.7421,3.7558,3.7612,3.7668,3.7737,3.772,3.7786,3.7777,3.7779,3.7793,3.7911,3.7938,3.7874,3.8079,3.8015,3.803,3.8058,3.8078,3.8094,3.8084,3.7814,0,0,0,0,0,3.74,3.7482,3.7532,3.7648,3.7676,3.7702,3.7748,3.7748,3.7802,3.7824,3.7858,3.791,3.7984,3.8032,3.8103,3.824,3.8251,3.83,3.8316,3.8329,3.8343,3.8415,3.8437,3.8201,3.8201,3.8201,0,0,3.746,3.7505,3.7556,3.7661,3.7703,3.7784,3.7721,3.7811,3.7871,3.7837,3.7948,3.7975,3.8032,3.8159,3.8216,3.8185,3.841,3.8343,3.8353,3.8359,3.8428,3.845,3.847,3.8208,3.8207,3.8206,0,0,3.7611,3.7655,3.7756,3.7799,3.7863,3.788,3.7904,3.7962,3.7979,3.8092,3.8067,3.8137,3.8265,3.8307,3.8345,3.8511,3.8487,3.8533,3.8617,3.8687,3.8706,3.8722,3.878,3.8801,3.8546,3.8547,3.8547,0,3.7677,3.7802,3.7809,3.7901,3.7946,3.7921,3.8022,3.8062,3.8146,3.8176,3.8141,3.83,3.8337,3.8472,3.8513,3.8545,3.857,3.8526,3.8703,3.872,3.8735,3.879,3.8812,3.8552,3.8551,3.8551,3.855,0,3.7879,3.7966,3.8039,3.8123,3.8177,3.8272,3.829,3.8343,3.8338,3.8357,3.847,3.8514,3.8592,3.8624,3.8619,3.8758,3.8737,3.8702,3.8637,3.8763,3.8814,3.8835,3.8559,3.8557,3.8556,3.8554,0,0,3.807,3.8156,3.8183,3.822,3.8289,3.8355,3.8448,3.8527,3.8571,3.8629,3.8705,3.8814,3.8782,3.8825,3.8824,3.8886,3.9013,3.8844,3.8845,3.8873,3.9166,3.9191,3.9216,3.8998,3.9002,3.9005,3.9161,0,3.8226,3.8393,3.8401,3.8552,3.8631,3.8607,3.8688,3.8737,3.8757,3.8825,3.8845,3.8922,3.8875,3.8901,3.8961,3.8985,3.9072,3.8974,3.9066,3.907,3.9052,3.9243,3.927,3.9415,3.9181,3.9185,3.9187,0,3.8431,3.8497,3.8657,3.8713,3.8747,3.882,3.8891,3.8957,3.9012,3.9021,3.907,3.9059,3.9151,3.9084,3.9209,3.9143,3.9181,3.9198,3.9203,3.9211,3.9136,3.9255,3.9462,3.9483,3.9219,3.9217,3.9214,0,3.8553,3.8682,3.8794,3.8826,3.8895,3.8947,3.8977,3.9028,3.9074,3.9136,3.9165,3.9236,3.9275,3.9328,3.9336,3.9287,3.9461,3.9395,3.947,3.947,3.9507,3.9505,3.9722,3.9534,3.9533,3.9533,3.9533,0,3.8726,3.8824,3.8849,3.8918,3.9026,3.9033,3.9138,3.9165,3.921,3.928,3.9263,3.933,3.9337,3.9404,3.9411,3.9513,3.953,3.9539,3.9539,3.954,3.9539,3.9564,3.9554,3.9539,3.9537,3.9536,3.9535,0,3.888,3.8902,3.9022,3.9078,3.9094,3.9171,3.9217,3.9281,3.9299,3.9389,3.941,3.9438,3.9516,3.953,3.9622,3.9626,3.9747,3.9738,3.973,3.9728,3.9802,3.9795,4.0043,4.0075,3.9866,3.9868,3.987,0,3.8989,3.9064,3.9129,3.9177,3.921,3.9287,3.9335,3.9343,3.9393,3.946,3.9515,3.9592,3.9654,3.978,3.9807,3.9876,3.9867,3.9949,3.9877,3.9875,3.9867,3.9862,3.9869,3.9963,3.9965,3.9967,3.9968,0,3.9179,3.9186,3.9257,3.9332,3.939,3.9448,3.9503,3.9542,3.9557,3.9613,3.9695,3.9743,3.9837,3.9913,3.9982,4.001,3.9991,3.9991,4.0012,4.0013,4.0005,4.0009,3.9767,3.9985,3.9983,3.9982,3.9981,3.9981,3.9313,3.9379,3.9434,3.9513,3.9556,3.9608,3.967,3.9697,3.9766,3.9845,3.9845,3.9933,3.9983,4.0074,4.0107,4.0174,4.0148,4.0178,4.0186,4.0193,4.0199,3.9995,4.0187,4.0186,4.0186,4.0186,4.0185,0,3.9501,3.9536,3.9609,3.9688,3.9749,3.9729,3.9788,3.984,3.9919,3.9968,4.003,4.0123,4.0196,4.0228,4.0299,4.0347,4.034,4.0365,4.0361,4.0367,4.022,4.0194,4.037,4.037,4.0369,4.0369,4.0369,4.0369,3.9607,3.9716,3.9729,3.9857,3.989,3.9979,4.0015,4.0061,4.0101,4.0206,4.0267,4.0289,4.033,4.0404,4.047,4.0477,4.0503,4.0532,4.0535,4.0397,4.0378,4.036,4.0336,4.0538,4.0539,4.0677,4.0679,4.0679]}]]